Parsons, KS

6:05 PM CDT on July 23, 2017 (GMT -0500)
Tri-City

Weather History for KPPF - January, 2014

Change the Weather History Date:

Wednesday, January 29, 2014

  Actual Average Record
Temperature  
Mean Temperature 26 °F -  
Max Temperature 46 °F 44 °F 71 °F (2011)
Min Temperature 7 °F 22 °F -6 °F (1979)
Degree Days  
Heating Degree Days 38    
Moisture  
Dew Point 9 °F    
Average Humidity 52    
Maximum Humidity 84    
Minimum Humidity 21    
Precipitation  
Precipitation 0.00 in - - ()
Sea Level Pressure  
Sea Level Pressure 30.22 in    
Wind  
Wind Speed 6 mph (South)    
Max Wind Speed 20 mph    
Max Gust Speed 30 mph    
Visibility 10 miles    
Events      
Averages and records for this station are not official NWS values.
T = Trace of Precipitation, MM = Missing Value Source: NWS Daily Summary

Daily Weather History Graph

Daily Weather History Graph

Search for Another Location

Airport or City:

Trip Planner

Search our weather history database for the weather conditions in past years. The results will help you decide how hot, cold, wet, or windy it might be!

Date:

Astronomy

Jan. 29, 2014 Rise Set
Actual Time 7:27 AM CST 5:43 PM CST
Civil Twilight 6:59 AM CST 6:10 PM CST
Nautical Twilight 6:28 AM CST 6:42 PM CST
Astronomical Twilight 5:57 AM CST 7:13 PM CST
Moon 6:04 AM CST (1/29) 4:43 PM CST (1/29)
Length of Visible Light 11h 11m
Length of Day
10h 15m
Waning Crescent, 2% of the Moon is Illuminated
Jan 29
Waning Crescent
Jan 30
New
Feb 6
First Quarter
Feb 14
Full
Feb 22
Last Quarter

Hourly Weather History & Observations

Time (CST) Temp. Windchill Dew Point Humidity Pressure Visibility Wind Dir Wind Speed Gust Speed Precip Events Conditions
12:52 AM 8.1 °F - 1.9 °F 76% 30.39 in 10.0 mi Calm Calm - N/A   Clear
1:52 AM 7.0 °F - 1.9 °F 80% 30.38 in 10.0 mi Calm Calm - N/A   Clear
2:52 AM 7.0 °F - 3.0 °F 84% 30.38 in 10.0 mi Calm Calm - N/A   Clear
3:52 AM 8.1 °F - 1.9 °F 76% 30.35 in 10.0 mi Calm Calm - N/A   Clear
4:52 AM 9.0 °F - 5.0 °F 84% 30.35 in 10.0 mi Calm Calm - N/A   Clear
5:52 AM 10.0 °F - 6.1 °F 84% 30.34 in 10.0 mi Calm Calm - N/A   Clear
6:52 AM 12.9 °F 6.9 °F 8.1 °F 81% 30.33 in 10.0 mi SSE 3.5 mph - N/A   Clear
7:52 AM 12.0 °F 5.9 °F 7.0 °F 80% 30.34 in 10.0 mi South 3.5 mph - N/A   Clear
8:52 AM 21.0 °F 11.4 °F 12.9 °F 71% 30.32 in 10.0 mi South 8.1 mph - N/A   Clear
9:52 AM 26.1 °F 16.2 °F 12.9 °F 58% 30.32 in 10.0 mi South 10.4 mph - N/A   Clear
10:52 AM 32.0 °F 24.2 °F 14.0 °F 48% 30.33 in 10.0 mi South 9.2 mph - N/A   Clear
11:52 AM 37.9 °F 30.5 °F 12.9 °F 36% 30.30 in 10.0 mi South 11.5 mph - N/A   Clear
12:52 PM 42.1 °F 34.9 °F 10.0 °F 27% 30.25 in 10.0 mi South 13.8 mph 24.2 mph N/A   Clear
1:52 PM 45.0 °F 37.9 °F 9.0 °F 23% 30.19 in 10.0 mi SSW 16.1 mph 25.3 mph N/A   Clear
2:52 PM 46.0 °F 39.3 °F 10.0 °F 23% 30.16 in 10.0 mi South 16.1 mph 23.0 mph N/A   Clear
3:52 PM 45.0 °F 37.1 °F 7.0 °F 21% 30.13 in 10.0 mi South 19.6 mph 29.9 mph N/A   Clear
4:52 PM 42.1 °F 33.9 °F 10.0 °F 27% 30.12 in 10.0 mi South 17.3 mph 25.3 mph N/A   Clear
5:52 PM 39.0 °F 31.4 °F 10.0 °F 30% 30.10 in 10.0 mi South 12.7 mph 20.7 mph N/A   Clear
6:52 PM 36.0 °F 29.6 °F 10.9 °F 36% 30.09 in 10.0 mi South 8.1 mph - N/A   Clear
7:52 PM 34.0 °F 26.0 °F 12.0 °F 40% 30.09 in 10.0 mi South 10.4 mph - N/A   Clear
8:52 PM 33.1 °F 23.9 °F 12.0 °F 42% 30.05 in 10.0 mi South 12.7 mph 19.6 mph N/A   Clear
9:52 PM 34.0 °F 24.6 °F 12.0 °F 40% 30.04 in 10.0 mi South 13.8 mph - N/A   Clear
10:52 PM 35.1 °F 25.2 °F 10.9 °F 37% 30.02 in 10.0 mi South 16.1 mph 25.3 mph N/A   Clear
11:52 PM 33.1 °F 23.0 °F 10.9 °F 40% 30.00 in 10.0 mi South 15.0 mph 25.3 mph N/A   Clear